User: anonymous   Login
Location: Unspecified
(0.0000°N, 0.0000°E)
Time: 04:33:34
(UTC+00:00)
Language:

STSS DEMO 1 (USA 208) - Orbit

View from above orbital plane
View from above orbital plane
View from above satellite
View from above satellite

Ground track
Ground track

The orbit data is extracted from the following two-line orbital elements,

1 35937U 09052A   15078.85040637 0.00000000  00000-0  00000-0 0    00
2 35937  57.9917  81.6381 0019464 172.4895 187.5104 12.79137046    00
Epoch (UTC): 19 March 2015 20:24:35
Eccentricity: 0.0019464
inclination: 57.9917°
perigee height: 1330 km
apogee height: 1360 km
right ascension of ascending node: 81.6381°
argument of perigee: 172.4895°
revolutions per day: 12.79137046
mean anomaly at epoch: 187.5104°
orbit number at epoch: 0

The dashed part of the orbit path shows where the satellite is in the earth's shadow,  

DLR